Kenai, AK

12:01 PM AKDT on May 20, 2018 (GMT -0800)
Kenai Municipal

Weather History for PAEN - December, 2013

Change the Weather History Date:

Sunday, December 15, 2013

  Actual Average Record
Temperature  
Mean Temperature 3 °F -  
Max Temperature 17 °F 23 °F 43 °F (2005)
Min Temperature -11 °F 9 °F -23 °F (2001)
Degree Days  
Heating Degree Days 62    
Moisture  
Dew Point 7 °F    
Average Humidity 88    
Maximum Humidity 96    
Minimum Humidity 74    
Precipitation  
Precipitation 0.00 in - - ()
Sea Level Pressure  
Sea Level Pressure 29.52 in    
Wind  
Wind Speed 7 mph (SE)    
Max Wind Speed 14 mph    
Max Gust Speed -    
Visibility 5 miles    
Events Snow    
Averages and records for this station are not official NWS values.
T = Trace of Precipitation, MM = Missing Value Source: NWS Daily Summary

Daily Weather History Graph

Daily Weather History Graph

Search for Another Location

Airport or City:

Astronomy

Dec. 15, 2013 Rise Set
Actual Time 10:08 AM AKST 3:52 PM AKST
Civil Twilight 9:08 AM AKST 4:51 PM AKST
Nautical Twilight 8:10 AM AKST 5:49 PM AKST
Astronomical Twilight 7:18 AM AKST 6:42 PM AKST
Moon 3:26 PM AKST (12/15) 8:09 AM AKST (12/15)
Length of Visible Light 7h 43m
Length of Day
5h 44m
Waxing Gibbous, 98% of the Moon is Illuminated
Dec 15
Waxing Gibbous
Dec 17
Full
Dec 25
Last Quarter
Jan 1
New
Jan 7
First Quarter

Hourly Weather History & Observations

Time (AKST) Temp. Windchill Dew Point Humidity Pressure Visibility Wind Dir Wind Speed Gust Speed Precip Events Conditions
12:50 AM 17.6 °F 3.7 °F 15.8 °F 93% 29.14 in 0.8 mi South 13.8 mph - 0.00 in Snow Light Snow
12:53 AM 17.1 °F 5.0 °F 15.1 °F 92% 29.16 in 0.8 mi South 10.4 mph - 0.00 in Snow Light Snow
1:04 AM 15.8 °F 2.7 °F 14.0 °F 93% 29.15 in 1.2 mi South 11.5 mph - 0.00 in Snow Light Snow
1:12 AM 15.8 °F 2.1 °F 14.0 °F 93% 29.16 in 2.0 mi South 12.7 mph - 0.00 in Snow Light Snow
1:53 AM 15.1 °F 1.8 °F 12.9 °F 91% 29.20 in 4.0 mi South 11.5 mph - 0.00 in Snow Light Snow
2:10 AM 15.8 °F 2.7 °F 12.2 °F 86% 29.20 in 6.0 mi South 11.5 mph - 0.00 in Snow Light Snow
2:50 AM 15.8 °F 3.4 °F 12.2 °F 86% 29.23 in 9.0 mi South 10.4 mph - 0.00 in   Overcast
3:53 AM 14.0 °F 3.9 °F 10.0 °F 84% 29.29 in 10.0 mi SSE 6.9 mph - 0.00 in   Overcast
4:53 AM 15.1 °F 4.2 °F 8.1 °F 74% 29.32 in 10.0 mi South 8.1 mph - N/A   Overcast
5:53 AM 15.1 °F 9.4 °F 10.9 °F 84% 29.36 in 2.0 mi SE 3.5 mph - 0.00 in Snow Light Snow
6:00 AM 14.0 °F 6.5 °F 10.4 °F 86% 29.36 in 1.8 mi SE 4.6 mph - 0.00 in Snow Light Snow
6:09 AM 14.0 °F 8.2 °F 10.4 °F 86% 29.36 in 2.5 mi SE 3.5 mph - 0.00 in Snow Light Snow
6:53 AM 14.0 °F - 10.9 °F 88% 29.40 in 2.0 mi Calm Calm - 0.00 in Snow Light Snow
7:03 AM 12.2 °F - 10.4 °F 92% 29.39 in 3.0 mi Calm Calm - 0.00 in Snow Light Snow
7:26 AM 12.2 °F 4.3 °F 10.4 °F 92% 29.40 in 3.0 mi South 4.6 mph - 0.00 in Snow Light Snow
7:33 AM 14.0 °F 8.2 °F 12.2 °F 93% 29.40 in 2.0 mi SSW 3.5 mph - 0.00 in Snow Light Snow
7:53 AM 16.0 °F - 14.0 °F 92% 29.42 in 3.0 mi Calm Calm - 0.00 in Snow Light Snow
8:12 AM 15.8 °F - 14.0 °F 93% 29.41 in 5.0 mi Calm Calm - 0.00 in Snow Light Snow
8:53 AM 14.0 °F 2.9 °F 12.0 °F 92% 29.47 in 10.0 mi NNE 8.1 mph - 0.00 in   Overcast
9:53 AM 12.9 °F 3.8 °F 12.0 °F 96% 29.51 in 5.0 mi NNE 5.8 mph - 0.00 in Snow Light Snow
10:44 AM 12.2 °F 4.3 °F 10.4 °F 92% 29.54 in 2.5 mi NNE 4.6 mph - 0.00 in Snow Light Snow
10:53 AM 12.0 °F 2.7 °F 9.0 °F 88% 29.55 in 2.0 mi North 5.8 mph - 0.00 in Snow Light Snow
11:17 AM 14.0 °F 5.1 °F 12.2 °F 93% 29.56 in 3.0 mi North 5.8 mph - 0.00 in Snow Light Snow
11:50 AM 15.8 °F 6.1 °F 12.2 °F 86% 29.58 in 2.0 mi NNW 6.9 mph - 0.00 in Snow Light Snow
11:53 AM 15.1 °F 4.2 °F 12.0 °F 88% 29.60 in 2.0 mi NNW 8.1 mph - 0.00 in Snow Light Snow
12:19 PM 14.0 °F 2.9 °F 8.6 °F 79% 29.60 in 5.0 mi NNW 8.1 mph - 0.00 in Snow Light Snow
12:36 PM 14.0 °F 2.0 °F 10.4 °F 86% 29.61 in 2.5 mi NNW 9.2 mph - 0.00 in Snow Light Snow
12:40 PM 14.0 °F 3.9 °F 8.6 °F 79% 29.61 in 4.0 mi NNW 6.9 mph - 0.00 in Snow Light Snow
12:53 PM 12.9 °F 2.6 °F 8.1 °F 81% 29.63 in 10.0 mi NNW 6.9 mph - 0.00 in   Overcast
1:49 PM 10.4 °F - 8.6 °F 92% 29.65 in 2.5 mi Calm Calm - N/A   Overcast
1:53 PM 10.9 °F - 8.1 °F 88% 29.66 in 2.5 mi Calm Calm - N/A   Overcast
1:55 PM 10.4 °F - 8.6 °F 92% 29.65 in 10.0 mi Calm Calm - N/A   Overcast
2:53 PM 8.1 °F - 6.1 °F 92% 29.69 in 10.0 mi Calm Calm - N/A   Scattered Clouds
3:53 PM 1.9 °F -5.6 °F -0.9 °F 88% 29.72 in 1.0 mi NNW 3.5 mph - N/A   Scattered Clouds
3:57 PM 3.2 °F - 1.4 °F 92% 29.71 in 10.0 mi Calm Calm - N/A   Clear
4:53 PM -2.0 °F - -5.1 °F 87% 29.74 in 10.0 mi Calm Calm - N/A   Clear
5:53 PM -2.9 °F -11.2 °F -5.1 °F 90% 29.78 in 10.0 mi ESE 3.5 mph - N/A   Clear
6:53 PM -5.1 °F - -8.0 °F 87% 29.81 in 10.0 mi Calm Calm - N/A   Scattered Clouds
7:53 PM -8.0 °F - -11.0 °F 86% 29.84 in 10.0 mi Calm Calm - N/A   Clear
8:53 PM -8.0 °F - -11.9 °F 83% 29.87 in 10.0 mi Calm Calm - N/A   Clear
9:53 PM -9.0 °F - -11.9 °F 87% 29.90 in 10.0 mi Calm Calm - N/A   Clear
10:53 PM -11.0 °F - -15.0 °F 83% 29.93 in 10.0 mi Calm Calm - N/A   Clear
11:53 PM -11.9 °F - -16.1 °F 82% 29.95 in 10.0 mi Calm Calm - N/A   Clear